Temp
14 15 16 17 16 16 16 16 17 17 17 17 17 17 16 16 16 15 14 12 12 12 12 11 11 10 10 10 9 9 8 8 8 8 9 9 9 9 9 9 8 8 9 9
14 15 16 15 15 16 16 17 17 17 17 17 17 17 16 16 16 16 15 13 12 12 12 12 11 11 11 10 10 9 9 8 8 8 8 9 9 9 9 9 9 8 8 9
15 16 15 15 16 16 17 17 17 17 17 17 17 17 16 17 17 16 15 13 13 12 12 12 12 11 11 11 10 10 9 9 8 9 8 8 9 9 9 9 9 9 9 9
15 15 15 15 16 16 18 17 16 16 17 19 17 19 17 17 17 17 16 15 14 14 13 13 12 12 12 12 11 10 10 10 9 9 9 10 10 9 9 9 9 9 9 9
16 15 15 16 17 16 17 16 16 16 17 18 18 19 17 17 15 16 16 15 14 14 14 13 13 12 12 12 11 11 10 10 10 10 10 10 10 10 10 10 9 9 9 9
15 14 15 16 16 16 16 16 16 17 17 19 19 18 19 17 15 15 17 17 16 15 14 13 13 13 13 12 12 11 11 11 11 10 10 10 10 10 10 10 10 10 10 9
15 15 15 16 16 16 16 17 19 19 19 20 17 18 16 16 17 17 17 17 17 15 14 14 14 13 12 12 12 11 11 11 11 10 10 10 10 10 10 10 10 10 10 10
16 17 16 16 16 17 17 18 19 18 20 20 16 19 17 17 17 17 17 17 17 16 15 14 13 12 12 12 12 11 11 11 11 10 10 10 10 10 10 10 10 10 10 9
17 17 16 16 16 16 17 17 18 19 18 19 19 17 16 16 17 17 17 17 17 17 16 14 14 13 13 12 12 12 11 11 11 11 11 10 10 10 10 10 10 10 10 10
16 17 16 16 16 16 16 17 18 18 19 19 18 18 18 15 16 17 17 17 17 16 15 15 14 14 13 13 12 12 12 11 11 11 10 10 10 10 10 10 10 9 9 10
16 16 16 16 16 17 16 17 17 18 18 20 19 19 17 15 17 17 16 16 16 15 15 14 14 13 13 13 12 12 12 12 11 11 11 11 11 11 10 10 11 10 10 10
15 17 17 17 16 16 16 16 17 18 18 18 18 18 17 16 16 16 16 15 15 14 14 14 13 13 12 12 12 12 12 12 11 11 11 11 11 11 11 11 11 11 11 10
15 16 17 16 15 15 16 15 15 16 16 17 18 18 17 16 16 15 14 14 14 14 13 13 12 12 11 11 11 11 11 11 11 11 11 11 11 11 11 11 12 11 11 11
15 16 16 16 15 16 15 14 14 15 16 17 17 17 15 15 15 14 14 13 13 13 12 12 12 11 11 11 10 10 10 10 10 10 10 10 10 10 10 10 11 11 11 11
14 15 15 14 14 14 14 14 14 14 15 15 16 15 15 13 13 11 12 12 12 11 11 11 11 10 10 9 9 9 10 10 10 10 9 9 9 9 9 9 9 9 10 10
14 14 14 14 13 13 13 14 13 13 13 13 13 14 13 12 10 10 9 11 11 11 11 11 10 9 9 9 9 9 10 10 10 10 9 9 9 8 8 7 8 8 8 8
14 14 13 15 13 13 13 14 13 12 12 12 13 12 12 12 11 9 8 10 10 10 9 9 9 9 9 9 9 9 9 9 9 8 8 8 7 7 7 7 6 6 7 7
13 13 13 14 13 14 13 13 12 11 11 11 11 11 11 11 9 8 8 9 9 9 8 8 8 8 8 9 9 8 8 8 8 8 8 7 7 7 7 7 7 6 6 7
13 12 13 13 14 14 12 11 11 11 11 11 10 11 10 10 10 9 8 8 8 8 8 8 8 8 8 8 7 7 7 7 7 7 7 6 6 6 6 7 6 6 6 6
12 12 12 13 13 14 12 11 11 11 11 11 10 10 10 9 9 9 8 8 8 7 7 7 6 6 6 6 6 5 6 6 6 6 6 6 6 6 6 6 6 7 6 6
11 11 11 13 12 13 11 11 11 10 10 10 10 9 8 8 8 8 7 7 7 6 6 6 6 5 5 5 5 5 5 5 5 5 5 6 6 6 6 5 5 6 6 6
11 11 12 12 12 12 11 10 9 10 10 9 9 8 8 7 7 7 7 6 6 6 5 5 5 5 5 5 5 5 5 4 4 4 5 5 5 5 5 5 5 5 5 6
10 10 11 10 10 10 10 9 9 8 8 8 7 7 7 6 6 6 6 5 5 5 5 5 5 5 5 5 4 4 4 4 4 4 4 5 5 5 5 5 4 3 3 3
9 9 9 9 9 9 9 8 8 7 7 7 6 6 5 5 5 5 5 5 5 5 5 5 5 5 4 4 4 3 3 3 3 4 5 5 5 5 5 4 4 4 4 3
9 9 8 8 8 8 7 7 7 6 6 5 5 5 5 4 4 4 5 5 5 5 5 5 4 4 4 3 3 2 3 3 3 3 3 3 3 3 4 4 4 3 3 3
8 8 8 9 7 7 6 6 6 5 5 5 4 4 4 4 4 5 4 4 5 5 5 5 4 3 3 2 1 1 1 1 2 2 2 2 2 3 3 3 3 4 3 3
Height
3193 3197 3195 3195 3197 3198 3199 3199 3200 3200 3199 3198 3199 3200 3201 3198 3200 3202 3202 3204 3205 3204 3205 3205 3205 3205 3206 3206 3206 3206 3206 3207 3207 3207 3208 3208 3209 3209 3209 3209 3209 3209 3210 3211
3194 3194 3194 3196 3197 3199 3199 3199 3198 3199 3198 3198 3199 3199 3198 3197 3198 3200 3203 3204 3206 3206 3206 3206 3206 3206 3206 3206 3206 3206 3207 3207 3207 3207 3206 3207 3207 3208 3209 3208 3208 3207 3208 3210
3191 3193 3192 3195 3197 3198 3197 3197 3196 3198 3198 3198 3197 3197 3196 3195 3196 3198 3200 3203 3205 3206 3207 3207 3207 3206 3206 3205 3205 3206 3206 3206 3206 3206 3206 3206 3206 3206 3207 3208 3208 3208 3208 3208
3189 3190 3192 3195 3196 3197 3193 3196 3197 3197 3196 3193 3195 3189 3195 3195 3195 3197 3199 3200 3203 3205 3206 3207 3207 3207 3206 3206 3205 3205 3205 3206 3206 3206 3206 3206 3206 3206 3207 3207 3206 3206 3207 3207
3187 3188 3191 3193 3194 3195 3195 3196 3196 3196 3195 3194 3193 3191 3191 3194 3195 3196 3197 3199 3202 3203 3204 3206 3207 3207 3207 3206 3206 3206 3206 3206 3205 3205 3205 3205 3206 3206 3206 3206 3205 3204 3204 3204
3186 3187 3190 3192 3193 3194 3194 3196 3195 3195 3193 3189 3187 3190 3186 3193 3193 3194 3194 3196 3197 3199 3202 3203 3204 3205 3205 3206 3206 3205 3205 3206 3206 3205 3206 3206 3206 3207 3205 3205 3205 3204 3204 3202
3185 3187 3188 3190 3192 3193 3194 3193 3187 3187 3185 3180 3187 3189 3186 3188 3189 3191 3192 3194 3194 3196 3199 3200 3202 3204 3204 3204 3205 3205 3205 3205 3205 3205 3205 3205 3206 3206 3207 3206 3205 3204 3202 3201
3181 3183 3186 3188 3189 3189 3189 3188 3183 3182 3176 3177 3187 3185 3186 3186 3188 3189 3191 3192 3193 3194 3196 3198 3200 3200 3200 3201 3203 3204 3204 3204 3204 3204 3203 3204 3204 3203 3201 3202 3202 3201 3199 3198
3178 3179 3181 3183 3186 3189 3187 3188 3186 3182 3183 3181 3179 3186 3185 3185 3187 3188 3189 3190 3191 3191 3192 3195 3196 3198 3200 3201 3201 3202 3202 3202 3201 3201 3201 3201 3201 3200 3200 3199 3199 3198 3195 3195
3178 3178 3180 3180 3182 3185 3186 3185 3185 3182 3179 3175 3178 3183 3177 3184 3185 3186 3188 3189 3190 3189 3190 3192 3194 3196 3198 3199 3200 3200 3199 3198 3198 3199 3198 3198 3198 3197 3196 3195 3193 3191 3191 3191
3178 3177 3181 3181 3181 3181 3184 3182 3183 3180 3180 3172 3173 3176 3181 3184 3184 3184 3186 3187 3188 3188 3188 3189 3191 3193 3194 3195 3196 3196 3195 3193 3195 3196 3197 3196 3196 3194 3192 3191 3188 3187 3187 3187
3176 3176 3175 3178 3179 3180 3181 3181 3182 3178 3177 3177 3176 3174 3178 3180 3181 3182 3183 3184 3185 3186 3186 3187 3188 3189 3191 3192 3193 3193 3192 3191 3192 3192 3192 3192 3191 3190 3187 3185 3185 3184 3183 3182
3175 3174 3173 3176 3178 3178 3180 3180 3181 3181 3180 3177 3176 3172 3175 3177 3178 3179 3180 3181 3182 3183 3184 3184 3186 3187 3189 3190 3190 3190 3191 3190 3189 3189 3187 3186 3185 3184 3182 3180 3178 3177 3177 3176
3174 3173 3171 3172 3178 3175 3177 3178 3178 3179 3177 3174 3174 3174 3174 3174 3175 3175 3175 3177 3178 3180 3181 3182 3183 3185 3185 3186 3186 3186 3185 3185 3184 3182 3180 3179 3177 3176 3174 3172 3171 3169 3167 3167
3173 3173 3173 3174 3173 3174 3175 3176 3175 3175 3175 3174 3173 3173 3175 3173 3173 3173 3172 3174 3176 3177 3179 3180 3181 3181 3181 3181 3181 3180 3179 3179 3177 3176 3174 3171 3168 3166 3164 3163 3160 3158 3157 3154
3170 3171 3171 3172 3172 3172 3172 3171 3170 3170 3169 3169 3170 3169 3169 3170 3169 3169 3169 3170 3172 3174 3176 3176 3176 3177 3176 3175 3175 3174 3173 3172 3171 3170 3168 3164 3161 3157 3152 3149 3148 3146 3144 3143
3169 3169 3170 3168 3168 3170 3168 3164 3165 3165 3165 3165 3166 3165 3163 3163 3164 3164 3166 3167 3169 3171 3171 3171 3171 3171 3170 3169 3169 3167 3166 3165 3163 3161 3158 3153 3149 3146 3142 3138 3136 3136 3134 3133
3166 3167 3167 3166 3165 3163 3160 3159 3160 3161 3160 3160 3160 3160 3160 3160 3161 3163 3163 3165 3166 3166 3166 3166 3165 3164 3163 3162 3161 3158 3157 3155 3153 3150 3147 3144 3141 3138 3136 3132 3129 3126 3126 3125
3162 3163 3162 3162 3159 3158 3159 3157 3158 3159 3160 3158 3159 3159 3159 3159 3160 3160 3161 3162 3162 3161 3160 3159 3158 3156 3155 3154 3151 3147 3145 3143 3140 3138 3135 3133 3130 3126 3125 3123 3121 3119 3115 3113
3155 3155 3158 3157 3156 3153 3154 3154 3154 3156 3156 3155 3156 3157 3158 3159 3161 3160 3158 3157 3156 3155 3154 3152 3151 3148 3145 3142 3139 3136 3133 3130 3128 3125 3123 3122 3121 3117 3114 3111 3110 3108 3107 3104
3152 3151 3151 3150 3151 3151 3150 3152 3152 3156 3156 3152 3154 3154 3155 3157 3157 3154 3153 3152 3151 3149 3147 3144 3142 3139 3136 3133 3129 3124 3121 3118 3115 3112 3110 3110 3108 3106 3102 3100 3098 3095 3094 3093
3149 3149 3147 3147 3147 3148 3146 3148 3152 3150 3149 3150 3150 3150 3151 3151 3149 3149 3147 3145 3143 3141 3138 3135 3131 3127 3124 3120 3117 3112 3109 3106 3102 3099 3098 3097 3094 3092 3089 3086 3084 3082 3079 3078
3146 3146 3145 3146 3143 3142 3143 3143 3144 3145 3145 3146 3146 3145 3145 3145 3144 3142 3140 3137 3135 3131 3127 3123 3119 3115 3112 3108 3104 3099 3096 3093 3089 3087 3086 3084 3082 3080 3077 3074 3073 3070 3068 3064
3139 3140 3141 3142 3140 3139 3140 3140 3141 3141 3141 3141 3141 3140 3139 3138 3136 3134 3131 3128 3124 3121 3116 3112 3107 3103 3099 3096 3092 3088 3085 3080 3077 3074 3072 3072 3069 3068 3066 3063 3060 3058 3054 3052
3137 3136 3137 3137 3136 3136 3137 3137 3137 3137 3137 3136 3135 3134 3132 3130 3128 3124 3121 3117 3113 3108 3104 3100 3095 3090 3086 3083 3079 3076 3072 3068 3064 3062 3061 3059 3058 3056 3055 3053 3050 3048 3046 3044
3131 3133 3135 3134 3131 3133 3133 3132 3133 3132 3132 3131 3130 3128 3125 3121 3118 3114 3110 3106 3101 3097 3092 3087 3082 3077 3073 3069 3066 3063 3059 3055 3053 3051 3050 3049 3047 3046 3045 3042 3040 3038 3034 3033
Wind_Speed
13 12 15 7 5 4 4 3 3 3 2 2 5 4 3 6 1 11 13 12 9 8 6 5 5 4 6 8 8 8 8 7 5 4 4 3 4 3 3 2 5 8 10 10
13 19 10 9 7 7 6 4 4 3 2 2 3 4 6 8 4 7 16 14 14 10 5 5 4 3 3 5 7 7 4 4 4 2 3 4 3 5 4 4 5 5 10 11
18 15 17 10 9 8 8 8 5 6 6 6 5 6 2 3 5 17 18 16 14 11 7 4 2 2 3 4 5 6 4 5 4 1 0 1 3 6 4 3 4 6 9 12
15 16 13 13 12 9 10 1 2 3 5 9 6 6 4 2 10 15 18 16 14 13 13 10 6 4 6 5 4 6 7 4 4 5 3 2 1 2 2 3 5 5 9 11
9 13 15 14 10 9 1 3 2 4 7 6 10 10 11 7 11 12 16 17 15 15 15 14 9 6 6 7 6 5 4 5 6 5 5 4 3 2 4 4 5 6 8 9
7 12 11 11 8 9 8 6 7 8 10 13 6 10 12 6 10 10 12 15 20 20 18 15 11 8 4 3 5 6 6 5 4 5 4 3 2 1 2 5 6 9 10 11
11 12 11 13 10 10 9 13 14 9 8 2 4 7 7 2 12 13 10 8 14 23 22 19 14 8 7 5 6 6 5 6 4 4 4 5 4 5 7 7 8 10 13 15
17 18 18 15 16 13 12 14 14 5 4 9 3 6 2 7 12 14 10 6 5 22 26 24 19 19 18 13 9 11 10 9 8 8 8 7 7 9 8 9 13 18 15 15
12 13 8 18 14 14 12 14 8 6 3 10 6 3 3 8 12 12 9 9 7 7 23 27 25 20 15 12 14 15 15 15 13 13 12 12 13 15 15 17 19 21 16 17
4 5 6 9 13 15 10 6 10 13 3 9 7 5 3 10 13 12 12 11 10 9 14 20 22 22 18 16 12 14 16 19 21 18 18 18 17 20 22 16 18 21 21 17
6 4 10 10 6 7 10 10 9 8 8 10 6 11 9 11 13 13 13 10 11 12 13 14 15 16 14 10 7 9 11 16 21 18 15 14 16 16 18 17 21 20 17 21
9 6 8 4 7 8 6 5 7 13 10 15 15 3 8 14 17 17 16 15 15 13 12 12 13 11 9 8 8 8 6 7 10 9 10 10 12 15 17 22 24 22 22 26
9 8 11 11 8 6 4 3 4 8 12 18 14 8 11 15 20 20 19 17 16 15 14 14 12 11 11 9 7 6 7 8 10 12 13 15 17 20 24 26 31 33 28 27
8 8 10 1 7 2 3 4 5 9 14 16 14 14 11 13 23 25 25 23 20 18 16 14 12 12 11 11 11 11 10 13 14 17 19 23 26 29 33 35 34 36 38 34
8 9 4 4 2 4 5 8 11 13 15 19 20 12 11 13 18 24 27 25 20 19 17 15 14 14 13 13 13 15 18 21 23 25 27 30 33 36 38 38 39 38 38 40
9 7 3 8 9 9 12 16 17 15 15 16 19 21 19 13 16 19 23 26 22 20 19 17 15 14 15 16 17 21 25 28 30 33 37 40 42 43 44 44 41 41 39 38
7 8 8 16 8 12 18 12 10 13 13 11 12 7 16 12 14 18 18 24 21 18 16 15 16 18 19 22 25 29 31 34 36 38 39 38 38 38 40 41 40 37 38 37
8 10 13 18 11 15 7 11 9 7 7 4 5 5 3 4 6 12 16 17 16 15 16 17 19 23 27 30 34 37 37 40 39 36 31 27 28 28 28 34 37 37 34 35
17 15 18 15 19 13 13 15 7 5 5 6 4 4 3 3 5 10 11 12 14 16 19 23 27 31 35 36 39 43 42 41 39 34 30 31 32 34 33 30 31 34 38 38
21 24 20 17 15 11 3 5 7 4 9 4 4 4 3 3 4 9 15 16 19 22 24 28 31 34 38 42 42 45 46 44 41 39 37 35 34 35 36 35 35 35 37 38
9 11 16 18 19 13 9 11 8 7 2 6 6 7 8 6 13 19 20 22 23 26 30 34 37 40 43 45 47 46 44 42 41 42 40 37 35 37 37 39 41 42 41 41
10 8 11 12 13 17 13 12 9 11 10 11 10 11 14 17 19 21 24 27 30 33 36 40 43 45 46 45 45 47 46 44 45 43 41 38 37 38 40 39 39 39 39 43
8 11 7 8 4 11 8 15 14 13 13 11 12 15 17 20 23 26 29 32 35 39 42 43 43 43 44 44 42 42 42 43 43 43 41 40 39 39 38 37 34 32 36 40
12 11 9 8 12 11 8 11 13 13 13 14 16 18 20 23 26 30 34 36 37 37 40 42 43 43 44 44 44 44 43 43 44 45 43 39 36 33 33 34 34 34 33 37
12 10 11 10 14 11 10 13 15 16 16 17 19 21 25 28 30 34 36 36 37 39 40 41 42 44 45 46 46 43 43 44 44 40 36 31 29 30 31 31 31 32 31 30
16 13 10 10 13 10 13 15 15 16 18 20 22 25 28 30 34 34 33 34 35 36 37 39 40 40 40 37 32 36 37 35 35 33 31 31 31 31 32 31 31 31 32 31
Wind_Direction
231 218 213 209 223 297 315 277 302 313 324 279 232 215 248 306 248 173 163 175 163 161 130 119 161 181 198 201 183 172 167 163 150 151 173 197 224 186 169 198 237 241 233 224
233 222 227 227 268 267 282 268 250 256 297 318 260 247 244 269 276 172 174 172 182 174 139 99 88 123 158 193 192 188 182 140 133 151 168 189 176 183 148 231 237 236 247 244
224 220 224 235 248 251 236 253 300 260 264 256 289 236 266 222 182 167 163 179 193 193 183 141 113 115 148 158 179 174 178 190 194 163 77 212 159 185 214 269 274 268 251 242
219 222 225 231 229 233 247 185 208 292 230 214 230 162 178 166 164 170 167 171 170 173 171 179 183 154 134 140 168 189 193 197 171 148 136 152 158 216 244 276 267 269 267 265
190 194 190 203 218 218 336 245 267 277 255 249 203 259 138 151 138 167 177 187 185 177 179 180 188 158 135 138 143 161 171 176 164 157 147 143 147 206 267 275 286 274 263 255
174 186 188 201 208 215 241 266 270 270 252 242 195 246 142 168 183 179 186 190 188 182 180 185 189 174 143 108 135 150 163 164 173 171 172 178 214 214 261 280 285 295 286 268
197 198 202 202 225 242 241 249 244 215 200 252 160 227 68 250 198 185 198 222 193 187 185 195 197 175 205 208 222 195 180 179 195 216 237 240 263 292 308 309 308 301 287 286
204 190 216 227 228 252 229 248 256 244 192 146 175 239 188 245 198 191 210 208 187 191 193 192 191 198 207 208 239 238 222 216 220 225 229 249 265 266 265 285 288 304 284 282
197 226 216 226 227 224 218 230 245 275 244 272 148 212 283 215 193 197 200 194 229 231 203 195 199 212 216 210 228 233 232 232 236 237 246 255 265 269 271 282 285 295 269 270
185 155 169 205 191 202 222 194 213 221 198 253 148 245 124 186 198 196 200 199 221 212 192 196 205 211 224 227 243 236 247 239 237 243 252 258 272 273 283 291 297 300 268 266
190 230 156 161 201 169 204 218 233 288 282 299 217 208 198 191 205 205 203 212 205 194 187 187 194 205 215 222 218 216 231 242 234 248 261 271 282 284 295 301 305 309 274 272
190 203 170 155 232 210 219 255 253 262 217 240 293 350 212 220 222 218 213 199 194 190 193 194 201 215 229 233 234 241 223 209 219 229 245 261 283 288 297 302 300 300 282 265
178 224 181 187 187 210 209 241 267 276 277 274 270 237 218 229 231 219 212 208 209 213 213 214 217 227 232 229 215 217 221 236 256 274 290 298 301 305 301 294 293 292 287 277
200 248 272 258 287 29 243 245 255 274 271 269 242 266 283 240 226 221 219 221 221 222 220 224 233 238 236 252 255 259 268 271 278 292 304 304 305 303 300 295 288 283 282 278
212 254 250 268 297 278 258 268 276 270 264 262 262 273 270 246 231 228 233 231 229 228 229 235 241 248 254 259 271 281 287 290 296 298 300 299 298 294 291 288 287 285 280 278
240 243 251 276 266 266 270 279 276 266 264 258 261 263 260 243 226 216 225 231 233 239 242 246 247 252 259 271 283 285 284 284 285 285 287 287 286 286 286 286 282 278 278 276
220 241 270 275 253 272 274 273 264 263 256 254 259 260 255 248 232 224 218 231 238 246 247 242 254 266 275 281 283 283 284 285 288 291 290 288 287 285 284 284 287 283 280 278
246 258 272 279 274 261 272 272 285 243 241 241 251 256 262 241 225 215 231 240 238 236 251 263 272 277 280 282 284 285 288 291 292 288 283 283 285 291 293 285 282 286 285 282
256 255 267 266 262 266 275 271 256 189 243 266 223 261 300 282 260 249 237 241 254 263 271 277 280 282 284 286 288 290 292 293 293 286 284 286 292 295 293 290 285 279 282 284
258 261 249 251 262 270 229 224 191 225 269 257 208 231 244 258 261 262 261 260 267 274 277 278 281 285 288 290 291 292 293 291 288 286 287 286 284 290 289 288 284 280 276 276
263 256 248 246 245 249 244 239 217 234 183 247 240 232 230 216 232 245 254 268 270 272 275 277 282 284 286 288 289 290 291 290 287 287 289 287 286 289 287 285 283 279 274 272
248 252 247 242 242 245 240 236 209 244 238 243 242 237 233 233 250 254 262 269 273 277 280 283 286 286 288 289 290 288 287 287 286 288 289 289 291 290 290 289 286 285 280 272
251 231 250 229 247 245 253 224 244 242 252 252 243 245 251 260 267 273 278 280 282 283 284 285 285 285 287 288 289 291 290 287 288 288 289 290 290 289 288 286 283 279 273 271
254 246 229 242 251 248 243 240 238 241 251 257 261 270 276 278 282 284 284 286 285 284 286 288 288 289 289 289 289 289 289 290 290 292 292 288 285 284 284 285 287 287 289 281
233 245 238 242 255 258 241 238 250 256 262 268 275 281 286 289 291 291 292 292 290 290 291 292 291 289 289 289 289 290 287 287 288 290 290 286 282 282 284 288 289 288 285 279
248 240 241 247 241 236 238 257 256 261 269 277 283 288 291 293 300 299 297 297 298 299 300 299 297 295 295 294 289 285 286 285 285 285 286 285 281 279 284 286 286 289 291 285